This is the latest recevied weather packets stored in our database for station/object F5ZQC-13. If no packets are shown the sender has not sent any weather packets the latest 10 day(s).
| Time | Temp. | Humidity | Pressure | Rain* | Wind** | Luminosity | Snow |
|---|---|---|---|---|---|---|---|
| 1777573790 | 19.44° C | 51% | 1015.4 hPa | 0 mm | - | - | - |
| 1777573668 | 19.44° C | 50% | 1015 hPa | 0 mm | - | - | - |
| 1777573605 | 19.44° C | 50% | 1015.3 hPa | 0 mm | - | - | - |
| 1777573424 | 20° C | 50% | 1015.3 hPa | 0 mm | - | - | - |
| 1777573362 | 20° C | 50% | 1015.4 hPa | 0 mm | - | - | - |
| 1777573302 | 20° C | 50% | 1015.4 hPa | 0 mm | - | - | - |
| 1777573179 | 20° C | 50% | 1015.2 hPa | 0 mm | - | - | - |
| 1777573117 | 20° C | 49% | 1015.2 hPa | 0 mm | - | - | - |
| 1777573022 | 20° C | 50% | 1015.4 hPa | 0 mm | - | - | - |
| 1777572997 | 20° C | 49% | 1015.4 hPa | 0 mm | - | - | - |
| 1777572875 | 20.56° C | 49% | 1015.4 hPa | 0 mm | - | - | - |
| 1777572753 | 20.56° C | 48% | 1015.4 hPa | 0 mm | - | - | - |
| 1777572509 | 20.56° C | 48% | 1015.1 hPa | 0 mm | - | - | - |
| 1777572477 | 20.56° C | 50% | 1015.2 hPa | 0 mm | - | - | - |
| 1777572354 | 20.56° C | 53% | 1015.2 hPa | 0 mm | - | - | - |
| 1777572232 | 20.56° C | 51% | 1015.2 hPa | 0 mm | - | - | - |
| 1777571734 | 21.11° C | 48% | 1014.9 hPa | 0 mm | - | - | - |
| 1777571610 | 21.11° C | 48% | 1014.8 hPa | 0 mm | - | - | - |
| 1777571243 | 21.11° C | 48% | 1015 hPa | 0 mm | - | - | - |
| 1777571121 | 21.11° C | 48% | 1014.8 hPa | 0 mm | - | - | - |
| 1777571059 | 21.11° C | 48% | 1014.9 hPa | 0 mm | - | - | - |
| 1777570970 | 21.11° C | 50% | 1015 hPa | 0 mm | - | - | - |
| 1777570726 | 21.11° C | 51% | 1014.8 hPa | 0 mm | - | - | - |
| 1777570604 | 21.11° C | 50% | 1014.7 hPa | 0 mm | - | - | - |
| 1777570493 | 21.11° C | 51% | 1014.7 hPa | 0 mm | - | - | - |
* Rain since midnight (hover to see other rain measurements)
** Current wind speed in m/s (hover to see current wind gust speed)